TimeCST,TemperatureF,Dew PointF,Humidity,Sea Level PressureIn,VisibilityMPH,Wind Direction,Wind SpeedMPH,Gust SpeedMPH,PrecipitationIn,Events,Conditions,WindDirDegrees,DateUTC
2:50 AM,54,41,51,29.84,6,WSW,2.2,,,,,240,2012-11-03 08:50:00
3:00 AM,51.8,42.8,71,29.83,10.0,South,9.2,-,N/A,,Clear,190,2012-11-03 09:00:00
4:43 AM,50.0,39.2,66,30.18,10.0,SSW,11.5,-,N/A,,Clear,200,2012-11-03 10:43:00
5:40 AM,46.4,39.2,76,29.91,10.0,Calm,Calm,-,N/A,,Clear,0,2012-11-03 11:40:00
5:50 AM,48,40,64,29.94,6,Calm,Calm,,,,,,2012-11-03 11:50:00
6:43 AM,39.2,32.0,75,30.21,12.0,Calm,Calm,-,N/A,,Clear,0,2012-11-03 12:43:00
7:43 AM,41.0,33.8,76,30.24,14.0,Calm,Calm,-,N/A,,Clear,0,2012-11-03 13:43:00
8:43 AM,51.8,39.2,62,30.06,14.0,Calm,Calm,-,N/A,,Partly Cloudy,0,2012-11-03 14:43:00
8:55 AM,53,38,45,30.04,19,Calm,Calm,,,,Clear,,2012-11-03 14:55:00
9:45 AM,59.0,41.0,51,30.25,14.0,Calm,Calm,-,N/A,,Scattered Clouds,0,2012-11-03 15:45:00
10:42 AM,-9999,-9999,N/A,-9999,14.0,Calm,Calm,-,N/A,,Partly Cloudy,0,2012-11-03 16:42:00
11:40 AM,69.8,39.2,33,29.88,14.0,NE,4.6,-,N/A,,Scattered Clouds,40,2012-11-03 17:40:00
11:45 AM,70,36,18,29.99,19,North,2.2,,,,Partly Cloudy,350,2012-11-03 17:45:00
12:41 PM,73.4,35.6,25,30.20,14.0,Calm,Calm,-,N/A,,Mostly Cloudy,0,2012-11-03 18:41:00
1:45 PM,77.0,35.6,22,30.15,14.0,SE,9.2,-,N/A,,Mostly Cloudy,140,2012-11-03 19:45:00
2:48 PM,77.0,30.2,18,29.81,14.0,WSW,4.6,-,N/A,,Mostly Cloudy,240,2012-11-03 20:48:00
2:50 PM,74,38,17,29.84,19,South,2.2,,,,Scattered Clouds,170,2012-11-03 20:50:00
3:45 PM,75.2,37.4,25,30.12,14.0,ESE,13.8,-,N/A,,Overcast,120,2012-11-03 21:45:00
4:42 PM,73.4,39.2,29,30.12,14.0,Calm,Calm,-,N/A,,Overcast,0,2012-11-03 22:42:00
5:47 PM,71.6,37.4,29,29.82,14.0,East,4.6,-,N/A,,Overcast,90,2012-11-03 23:47:00
5:55 PM,71,39,20,29.78,25,ESE,2.2,,,,Overcast,120,2012-11-03 23:55:00
6:46 PM,64.4,39.2,40,30.14,10.0,Calm,Calm,-,N/A,,Mostly Cloudy,0,2012-11-04 00:46:00
7:44 PM,60.8,42.8,52,30.16,10.0,South,6.9,-,N/A,,Scattered Clouds,180,2012-11-04 01:44:00
8:55 PM,65,42,31,29.77,6,WNW,2.2,,,,,300,2012-11-04 02:55:00
11:55 PM,58,41,41,29.81,6,Calm,Calm,,,,Mostly Cloudy,,2012-11-04 05:55:00